PUA2539 SUMU-SPJC

Flight info

Callsign PUA2539
Flight time 4h 40m
Altitude 34000
Route NIMBO UL417 PAR UW8 ERE UT680 TUC/N0460F360 UL550 SCO
Aircraft A320/M-SDE3FGHIRWY/LB1

Departure

Time 2026-05-07 11:34
Airport Carrasco General Cesáreo L. Berisso International Airport (SUMU)

Arrival

Time 2026-05-07 16:14
Airport Jorge Chávez International Airport (SPJC)
Time Latitude Longitude Altitude Speed Heading
2026-05-07 11:13 -34.83607 -56.01788 67 ft 0 kts 142°
2026-05-07 11:23 -34.83598 -56.01796 74 ft 3 kts 143°
2026-05-07 11:23 -34.83582 -56.01810 63 ft 3 kts 146°
2026-05-07 11:23 -34.83565 -56.01823 70 ft 3 kts 153°
2026-05-07 11:24 -34.83546 -56.01832 69 ft 3 kts 176°
2026-05-07 11:24 -34.83532 -56.01830 65 ft 2 kts 226°
2026-05-07 11:24 -34.83529 -56.01827 65 ft 0 kts 233°
2026-05-07 11:26 -34.83533 -56.01834 65 ft 3 kts 232°
2026-05-07 11:26 -34.83557 -56.01871 68 ft 6 kts 231°
2026-05-07 11:27 -34.83577 -56.01903 71 ft 6 kts 233°
2026-05-07 11:27 -34.83614 -56.01963 70 ft 12 kts 233°
2026-05-07 11:27 -34.83663 -56.02045 74 ft 12 kts 233°
2026-05-07 11:27 -34.83715 -56.02130 74 ft 13 kts 233°
2026-05-07 11:28 -34.83773 -56.02222 74 ft 13 kts 220°
2026-05-07 11:28 -34.83857 -56.02242 65 ft 13 kts 184°
2026-05-07 11:28 -34.83941 -56.02261 61 ft 10 kts 228°
2026-05-07 11:28 -34.83948 -56.02333 61 ft 9 kts 270°
2026-05-07 11:29 -34.83946 -56.02426 61 ft 11 kts 271°
2026-05-07 11:29 -34.83946 -56.02498 61 ft 6 kts 269°
2026-05-07 11:29 -34.83946 -56.02536 61 ft 3 kts 270°
2026-05-07 11:29 -34.83946 -56.02546 61 ft 0 kts 270°
2026-05-07 11:30 -34.83946 -56.02570 61 ft 7 kts 269°
2026-05-07 11:30 -34.83953 -56.02663 55 ft 12 kts 259°
2026-05-07 11:30 -34.83991 -56.02750 58 ft 13 kts 234°
2026-05-07 11:30 -34.84012 -56.02878 64 ft 17 kts 271°
2026-05-07 11:31 -34.84009 -56.02998 69 ft 14 kts 271°
2026-05-07 11:31 -34.84037 -56.03138 68 ft 18 kts 242°
2026-05-07 11:31 -34.84089 -56.03254 72 ft 14 kts 242°
2026-05-07 11:31 -34.84144 -56.03379 74 ft 19 kts 242°
2026-05-07 11:32 -34.84244 -56.03626 65 ft 12 kts 265°
2026-05-07 11:32 -34.84198 -56.03672 70 ft 7 kts 23°
2026-05-07 11:32 -34.84182 -56.03651 71 ft 0 kts 55°
2026-05-07 11:33 -34.84161 -56.03614 67 ft 27 kts 55°
2026-05-07 11:33 -34.83908 -56.03197 76 ft 93 kts 53°
2026-05-07 11:33 -34.83414 -56.02389 90 ft 144 kts 53°
2026-05-07 11:34 -34.82769 -56.01345 386 ft 158 kts 53°
2026-05-07 11:34 -34.82076 -56.00250 841 ft 169 kts 51°
2026-05-07 11:34 -34.81299 -55.99002 931 ft 203 kts 51°
2026-05-07 11:34 -34.80399 -55.97522 991 ft 231 kts 51°
2026-05-07 11:35 -34.79395 -55.95862 1302 ft 255 kts 51°
2026-05-07 11:35 -34.78272 -55.94127 1920 ft 264 kts 40°
2026-05-07 11:35 -34.76662 -55.93125 2607 ft 264 kts
2026-05-07 11:35 -34.74880 -55.93436 3314 ft 262 kts 330°
2026-05-07 11:36 -34.73571 -55.94933 4024 ft 262 kts 298°
2026-05-07 11:36 -34.73050 -55.96300 4484 ft 266 kts 288°
2026-05-07 11:36 -34.72478 -55.98456 5212 ft 270 kts 287°
2026-05-07 11:36 -34.71919 -56.00645 6000 ft 271 kts 287°
2026-05-07 11:37 -34.71361 -56.02837 6781 ft 272 kts 287°
2026-05-07 11:37 -34.70773 -56.05015 7573 ft 271 kts 291°
2026-05-07 11:37 -34.69989 -56.07098 8402 ft 271 kts 296°
2026-05-07 11:37 -34.69113 -56.09088 9211 ft 270 kts 298°
2026-05-07 11:38 -34.68191 -56.11087 9852 ft 276 kts 298°
2026-05-07 11:38 -34.67212 -56.13205 9995 ft 299 kts 298°
2026-05-07 11:38 -34.66168 -56.15498 10123 ft 321 kts 298°
2026-05-07 11:38 -34.65074 -56.17941 10413 ft 335 kts 297°
2026-05-07 11:39 -34.63966 -56.20451 10982 ft 339 kts 297°
2026-05-07 11:39 -34.62853 -56.22989 11619 ft 342 kts 297°
2026-05-07 11:39 -34.61734 -56.25548 12262 ft 344 kts 297°
2026-05-07 11:39 -34.60613 -56.28117 12899 ft 346 kts 297°
2026-05-07 11:40 -34.59485 -56.30703 13493 ft 348 kts 297°
2026-05-07 11:40 -34.58351 -56.33299 14095 ft 348 kts 298°
2026-05-07 11:40 -34.57217 -56.35886 14704 ft 347 kts 298°
2026-05-07 11:40 -34.56083 -56.38471 15298 ft 347 kts 298°
2026-05-07 11:41 -34.54947 -56.41062 15865 ft 348 kts 298°
2026-05-07 11:41 -34.53802 -56.43667 16392 ft 350 kts 298°
2026-05-07 11:41 -34.52653 -56.46281 16941 ft 352 kts 298°
2026-05-07 11:41 -34.51468 -56.48881 17499 ft 353 kts 302°
2026-05-07 11:42 -34.49978 -56.51252 18046 ft 355 kts 308°
2026-05-07 11:42 -34.48395 -56.53551 18530 ft 356 kts 309°
2026-05-07 11:42 -34.46804 -56.55859 18987 ft 357 kts 309°
2026-05-07 11:42 -34.45207 -56.58175 19457 ft 358 kts 309°
2026-05-07 11:43 -34.43608 -56.60487 19966 ft 358 kts 309°
2026-05-07 11:43 -34.42007 -56.62800 20416 ft 359 kts 309°
2026-05-07 11:43 -34.40404 -56.65124 20836 ft 360 kts 309°
2026-05-07 11:43 -34.38791 -56.67464 21210 ft 363 kts 309°
2026-05-07 11:44 -34.37169 -56.69813 21596 ft 365 kts 309°
2026-05-07 11:44 -34.35537 -56.72177 21978 ft 367 kts 309°
2026-05-07 11:44 -34.33900 -56.74550 22371 ft 368 kts 309°
2026-05-07 11:44 -34.32253 -56.76933 22742 ft 370 kts 309°
2026-05-07 11:45 -34.30600 -56.79322 23095 ft 371 kts 309°
2026-05-07 11:45 -34.28934 -56.81720 23396 ft 373 kts 310°
2026-05-07 11:45 -34.27263 -56.84124 23670 ft 375 kts 310°
2026-05-07 11:45 -34.25590 -56.86531 24046 ft 373 kts 310°
2026-05-07 11:46 -34.23917 -56.88935 24343 ft 374 kts 311°
2026-05-07 11:46 -34.22236 -56.91345 24594 ft 376 kts 311°
2026-05-07 11:46 -34.20544 -56.93770 24839 ft 378 kts 311°
2026-05-07 11:46 -34.18844 -56.96201 25087 ft 380 kts 311°
2026-05-07 11:47 -34.17136 -56.98643 25334 ft 382 kts 311°
2026-05-07 11:47 -34.15418 -57.01099 25575 ft 383 kts 311°
2026-05-07 11:47 -34.13696 -57.03564 25798 ft 385 kts 311°
2026-05-07 11:47 -34.11964 -57.06045 26032 ft 387 kts 312°
2026-05-07 11:48 -34.10224 -57.08533 26262 ft 389 kts 312°
2026-05-07 11:48 -34.08477 -57.11029 26474 ft 391 kts 312°
2026-05-07 11:48 -34.06722 -57.13536 26784 ft 390 kts 312°
2026-05-07 11:48 -34.04971 -57.16034 27014 ft 391 kts 313°
2026-05-07 11:49 -34.03209 -57.18543 27213 ft 392 kts 313°
2026-05-07 11:49 -34.01442 -57.21056 27402 ft 394 kts 313°
2026-05-07 11:49 -33.99666 -57.23583 27582 ft 396 kts 313°
2026-05-07 11:49 -33.97882 -57.26119 27760 ft 397 kts 313°
2026-05-07 11:50 -33.96091 -57.28661 27933 ft 399 kts 313°
2026-05-07 11:50 -33.94290 -57.31216 28076 ft 401 kts 313°
2026-05-07 11:50 -33.92484 -57.33777 28301 ft 401 kts 314°
2026-05-07 11:50 -33.90677 -57.36336 28547 ft 401 kts 314°
2026-05-07 11:51 -33.88875 -57.38893 28824 ft 400 kts 314°
2026-05-07 11:51 -33.87080 -57.41440 29157 ft 398 kts 314°
2026-05-07 11:51 -33.85296 -57.43975 29452 ft 397 kts 314°
2026-05-07 11:51 -33.83513 -57.46506 29708 ft 396 kts 315°
2026-05-07 11:52 -33.81730 -57.49033 29924 ft 396 kts 315°
2026-05-07 11:52 -33.79949 -57.51555 30126 ft 396 kts 315°
2026-05-07 11:52 -33.78169 -57.54079 30316 ft 396 kts 315°
2026-05-07 11:52 -33.76385 -57.56605 30503 ft 397 kts 315°
2026-05-07 11:53 -33.74595 -57.59135 30705 ft 396 kts 315°
2026-05-07 11:53 -33.72808 -57.61657 30916 ft 396 kts 315°
2026-05-07 11:53 -33.71024 -57.64171 31124 ft 396 kts 315°
2026-05-07 11:53 -33.69241 -57.66682 31392 ft 394 kts 315°
2026-05-07 11:54 -33.67466 -57.69178 31684 ft 392 kts 315°
2026-05-07 11:54 -33.65700 -57.71660 31923 ft 391 kts 315°
2026-05-07 11:54 -33.63937 -57.74141 32146 ft 390 kts 315°
2026-05-07 11:54 -33.62178 -57.76619 32284 ft 391 kts 315°
2026-05-07 11:55 -33.60409 -57.79105 32435 ft 392 kts 316°
2026-05-07 11:55 -33.58637 -57.81592 32631 ft 392 kts 316°
2026-05-07 11:55 -33.56862 -57.84084 32832 ft 392 kts 316°
2026-05-07 11:55 -33.55090 -57.86568 33036 ft 392 kts 316°
2026-05-07 11:56 -33.53321 -57.89045 33244 ft 391 kts 316°
2026-05-07 11:56 -33.51550 -57.91524 33454 ft 391 kts 316°
2026-05-07 11:56 -33.49781 -57.93991 33629 ft 390 kts 316°
2026-05-07 11:57 -33.46259 -57.98896 33646 ft 388 kts 316°
2026-05-07 11:57 -33.42743 -58.03799 33656 ft 388 kts 316°
2026-05-07 11:58 -33.39225 -58.08695 33659 ft 388 kts 316°
2026-05-07 11:58 -33.35696 -58.13586 33659 ft 388 kts 316°
2026-05-07 11:59 -33.32169 -58.18469 33660 ft 388 kts 316°
2026-05-07 11:59 -33.28655 -58.23328 33654 ft 389 kts 316°
2026-05-07 12:00 -33.25114 -58.28226 33638 ft 390 kts 316°
2026-05-07 12:00 -33.21563 -58.33119 33635 ft 390 kts 316°
2026-05-07 12:01 -33.18003 -58.38025 33636 ft 391 kts 316°
2026-05-07 12:01 -33.14444 -58.42934 33607 ft 391 kts 316°
2026-05-07 12:02 -33.10870 -58.47845 33639 ft 392 kts 316°
2026-05-07 12:02 -33.07289 -58.52762 33641 ft 393 kts 316°
2026-05-07 12:03 -33.03702 -58.57678 33669 ft 393 kts 316°
2026-05-07 12:03 -33.00129 -58.62611 33670 ft 394 kts 315°
2026-05-07 12:04 -32.96788 -58.67827 33654 ft 397 kts 312°
2026-05-07 12:04 -32.93564 -58.73162 33656 ft 397 kts 312°
2026-05-07 12:05 -32.90308 -58.78467 33659 ft 397 kts 313°
2026-05-07 12:05 -32.87027 -58.83690 33661 ft 397 kts 313°
2026-05-07 12:06 -32.83710 -58.88938 33660 ft 397 kts 313°
2026-05-07 12:06 -32.80402 -58.94186 33630 ft 397 kts 313°
2026-05-07 12:07 -32.77083 -58.99443 33634 ft 398 kts 313°
2026-05-07 12:07 -32.73760 -59.04703 33687 ft 398 kts 312°
2026-05-07 12:08 -32.70441 -59.09953 33686 ft 397 kts 312°
2026-05-07 12:08 -32.67125 -59.15187 33690 ft 396 kts 312°
2026-05-07 12:09 -32.63814 -59.20410 33659 ft 396 kts 312°
2026-05-07 12:09 -32.60490 -59.25638 33660 ft 397 kts 312°
2026-05-07 12:10 -32.57163 -59.30854 33668 ft 397 kts 312°
2026-05-07 12:10 -32.53840 -59.36071 33706 ft 395 kts 312°
2026-05-07 12:11 -32.50531 -59.41260 33711 ft 394 kts 312°
2026-05-07 12:11 -32.47227 -59.46420 33706 ft 392 kts 312°
2026-05-07 12:12 -32.43924 -59.51550 33705 ft 391 kts 313°
2026-05-07 12:12 -32.40624 -59.56676 33703 ft 391 kts 312°
2026-05-07 12:13 -32.37336 -59.61792 33714 ft 388 kts 312°
2026-05-07 12:13 -32.34093 -59.66826 33704 ft 383 kts 313°
2026-05-07 12:14 -32.30880 -59.71796 33689 ft 382 kts 313°
2026-05-07 12:14 -32.27645 -59.76788 33691 ft 382 kts 313°
2026-05-07 12:15 -32.24414 -59.81780 33693 ft 382 kts 313°
2026-05-07 12:15 -32.21178 -59.86768 33698 ft 382 kts 313°
2026-05-07 12:16 -32.17937 -59.91750 33734 ft 383 kts 312°
2026-05-07 12:16 -32.14697 -59.96737 33691 ft 383 kts 312°
2026-05-07 12:17 -32.11457 -60.01725 33689 ft 383 kts 312°
2026-05-07 12:17 -32.08733 -60.05912 33697 ft 384 kts 313°
2026-05-07 12:18 -32.05498 -60.10870 33703 ft 384 kts 313°
2026-05-07 12:18 -32.02241 -60.15852 33706 ft 384 kts 313°
2026-05-07 12:19 -31.98989 -60.20817 33692 ft 380 kts 311°
2026-05-07 12:19 -31.95764 -60.25748 33706 ft 380 kts 311°
2026-05-07 12:20 -31.92535 -60.30672 33722 ft 380 kts 311°
2026-05-07 12:20 -31.89306 -60.35601 33740 ft 380 kts 311°
2026-05-07 12:21 -31.86059 -60.40522 33756 ft 380 kts 311°
2026-05-07 12:21 -31.82816 -60.45441 33763 ft 380 kts 311°
2026-05-07 12:22 -31.79127 -60.49767 33782 ft 373 kts 325°
2026-05-07 12:22 -31.74769 -60.53080 33781 ft 372 kts 326°
2026-05-07 12:23 -31.70421 -60.56397 33774 ft 372 kts 326°
2026-05-07 12:23 -31.66085 -60.59706 33761 ft 372 kts 326°
2026-05-07 12:24 -31.61772 -60.62986 33680 ft 372 kts 326°
2026-05-07 12:24 -31.57432 -60.66286 33691 ft 372 kts 326°
2026-05-07 12:25 -31.53082 -60.69587 33694 ft 373 kts 326°
2026-05-07 12:25 -31.48727 -60.72885 33704 ft 373 kts 326°
2026-05-07 12:26 -31.44377 -60.76185 33745 ft 372 kts 325°
2026-05-07 12:26 -31.40052 -60.79452 33673 ft 369 kts 325°
2026-05-07 12:27 -31.35726 -60.82720 33685 ft 370 kts 325°
2026-05-07 12:27 -31.31393 -60.85991 33693 ft 371 kts 325°
2026-05-07 12:28 -31.27052 -60.89269 33715 ft 372 kts 325°
2026-05-07 12:28 -31.22696 -60.92552 33720 ft 372 kts 325°
2026-05-07 12:29 -31.18336 -60.95831 33700 ft 373 kts 325°
2026-05-07 12:29 -31.13975 -60.99106 33715 ft 373 kts 325°
2026-05-07 12:30 -31.09606 -61.02385 33724 ft 373 kts 325°
2026-05-07 12:30 -31.05236 -61.05658 33773 ft 373 kts 325°
2026-05-07 12:31 -31.00873 -61.08925 33739 ft 372 kts 325°
2026-05-07 12:31 -30.96514 -61.12178 33749 ft 372 kts 324°
2026-05-07 12:32 -30.92155 -61.15426 33751 ft 372 kts 324°
2026-05-07 12:32 -30.87798 -61.18669 33749 ft 372 kts 324°
2026-05-07 12:33 -30.81262 -61.23531 33760 ft 372 kts 325°
2026-05-07 12:33 -30.76935 -61.26747 33714 ft 372 kts 324°
2026-05-07 12:34 -30.72571 -61.29982 33732 ft 372 kts 324°
2026-05-07 12:34 -30.68206 -61.33214 33739 ft 372 kts 324°
2026-05-07 12:35 -30.63842 -61.36447 33786 ft 372 kts 324°
2026-05-07 12:35 -30.59477 -61.39676 33776 ft 372 kts 324°
2026-05-07 12:36 -30.55111 -61.42898 33773 ft 372 kts 324°
2026-05-07 12:36 -30.50746 -61.46113 33775 ft 371 kts 324°
2026-05-07 12:37 -30.46392 -61.49333 33772 ft 371 kts 324°
2026-05-07 12:37 -30.42033 -61.52546 33770 ft 371 kts 324°
2026-05-07 12:38 -30.37671 -61.55749 33730 ft 371 kts 324°
2026-05-07 12:38 -30.33309 -61.58952 33752 ft 371 kts 324°
2026-05-07 12:39 -30.28948 -61.62152 33755 ft 371 kts 324°
2026-05-07 12:39 -30.24582 -61.65348 33761 ft 371 kts 324°
2026-05-07 12:40 -30.20218 -61.68547 33772 ft 371 kts 324°
2026-05-07 12:40 -30.15850 -61.71738 33749 ft 371 kts 324°
2026-05-07 12:41 -30.11483 -61.74929 33761 ft 371 kts 324°
2026-05-07 12:41 -30.07107 -61.78130 33768 ft 372 kts 324°
2026-05-07 12:42 -30.02741 -61.81319 33771 ft 372 kts 324°
2026-05-07 12:42 -29.98371 -61.84505 33775 ft 372 kts 324°
2026-05-07 12:43 -29.93998 -61.87682 33732 ft 372 kts 324°
2026-05-07 12:43 -29.89620 -61.90867 33742 ft 372 kts 324°
2026-05-07 12:44 -29.85548 -61.94470 33803 ft 369 kts 315°
2026-05-07 12:44 -29.81838 -61.98543 33800 ft 368 kts 315°
2026-05-07 12:45 -29.78127 -62.02605 33793 ft 368 kts 315°
2026-05-07 12:45 -29.74417 -62.06654 33800 ft 368 kts 315°
2026-05-07 12:46 -29.70706 -62.10703 33773 ft 367 kts 315°
2026-05-07 12:46 -29.66998 -62.14746 33777 ft 367 kts 315°
2026-05-07 12:47 -29.63287 -62.18787 33790 ft 367 kts 315°
2026-05-07 12:47 -29.59571 -62.22829 33825 ft 367 kts 315°
2026-05-07 12:48 -29.55860 -62.26862 33819 ft 367 kts 315°
2026-05-07 12:48 -29.52155 -62.30896 33780 ft 367 kts 315°
2026-05-07 12:49 -29.48447 -62.34924 33792 ft 367 kts 315°
2026-05-07 12:49 -29.44729 -62.38939 33789 ft 367 kts 315°
2026-05-07 12:50 -29.41010 -62.42960 33802 ft 367 kts 315°
2026-05-07 12:50 -29.37319 -62.46948 33803 ft 367 kts 315°
2026-05-07 12:51 -29.33607 -62.50966 33801 ft 367 kts 315°
2026-05-07 12:51 -29.29891 -62.54980 33823 ft 368 kts 315°
2026-05-07 12:52 -29.26159 -62.58999 33820 ft 368 kts 315°
2026-05-07 12:52 -29.22436 -62.63002 33818 ft 367 kts 315°
2026-05-07 12:53 -29.18716 -62.67004 33824 ft 367 kts 315°
2026-05-07 12:53 -29.14992 -62.70999 33821 ft 366 kts 315°
2026-05-07 12:54 -29.11273 -62.74988 33767 ft 366 kts 315°
2026-05-07 12:54 -29.07551 -62.78988 33781 ft 367 kts 315°
2026-05-07 12:55 -29.03819 -62.82985 33825 ft 368 kts 315°
2026-05-07 12:55 -29.00090 -62.86983 33823 ft 367 kts 315°
2026-05-07 12:56 -28.96359 -62.90970 33830 ft 367 kts 315°
2026-05-07 12:56 -28.92632 -62.94950 33821 ft 367 kts 315°
2026-05-07 12:57 -28.89533 -62.98258 33776 ft 367 kts 315°
2026-05-07 12:57 -28.85791 -63.02236 33782 ft 368 kts 315°
2026-05-07 12:58 -28.82050 -63.06223 33789 ft 368 kts 315°
2026-05-07 12:58 -28.78298 -63.10213 33795 ft 369 kts 315°
2026-05-07 12:59 -28.74538 -63.14196 33822 ft 369 kts 315°
2026-05-07 12:59 -28.70787 -63.18175 33810 ft 369 kts 315°
2026-05-07 13:00 -28.67032 -63.22155 33787 ft 369 kts 315°
2026-05-07 13:00 -28.63271 -63.26139 33786 ft 369 kts 315°
2026-05-07 13:01 -28.59507 -63.30115 33786 ft 369 kts 315°
2026-05-07 13:01 -28.55740 -63.34099 33787 ft 369 kts 315°
2026-05-07 13:02 -28.51968 -63.38082 33805 ft 370 kts 315°
2026-05-07 13:02 -28.48221 -63.42028 33794 ft 370 kts 315°
2026-05-07 13:03 -28.44447 -63.46008 33817 ft 370 kts 315°
2026-05-07 13:03 -28.40668 -63.49984 33816 ft 370 kts 315°
2026-05-07 13:04 -28.36863 -63.53981 33810 ft 370 kts 315°
2026-05-07 13:04 -28.33077 -63.57956 33809 ft 371 kts 315°
2026-05-07 13:05 -28.29292 -63.61928 33823 ft 371 kts 315°
2026-05-07 13:05 -28.25530 -63.65876 33774 ft 371 kts 315°
2026-05-07 13:06 -28.21734 -63.69839 33778 ft 371 kts 315°
2026-05-07 13:06 -28.17935 -63.73813 33796 ft 372 kts 315°
2026-05-07 13:07 -28.14131 -63.77795 33807 ft 372 kts 315°
2026-05-07 13:07 -28.10315 -63.81776 33806 ft 373 kts 315°
2026-05-07 13:08 -28.06497 -63.85758 33797 ft 373 kts 315°
2026-05-07 13:08 -28.02680 -63.89757 33801 ft 375 kts 315°
2026-05-07 13:09 -27.98832 -63.93782 33806 ft 376 kts 315°
2026-05-07 13:09 -27.94993 -63.97796 33813 ft 376 kts 315°
2026-05-07 13:10 -27.91150 -64.01812 33822 ft 376 kts 315°
2026-05-07 13:10 -27.87305 -64.05820 33861 ft 376 kts 314°
2026-05-07 13:11 -27.83454 -64.09828 33855 ft 376 kts 314°
2026-05-07 13:11 -27.79598 -64.13842 33795 ft 377 kts 314°
2026-05-07 13:12 -27.75734 -64.17863 33810 ft 378 kts 314°
2026-05-07 13:12 -27.71858 -64.21890 33817 ft 379 kts 314°
2026-05-07 13:13 -27.67983 -64.25918 33820 ft 379 kts 314°
2026-05-07 13:13 -27.64096 -64.29943 33819 ft 379 kts 314°
2026-05-07 13:14 -27.60218 -64.33957 33812 ft 377 kts 314°
2026-05-07 13:14 -27.56321 -64.37993 33844 ft 382 kts 314°
2026-05-07 13:15 -27.52401 -64.42046 33832 ft 383 kts 314°
2026-05-07 13:15 -27.48475 -64.46096 33827 ft 383 kts 314°
2026-05-07 13:16 -27.44544 -64.50150 33832 ft 383 kts 314°
2026-05-07 13:16 -27.40617 -64.54202 33830 ft 383 kts 314°
2026-05-07 13:17 -27.36680 -64.58255 33771 ft 384 kts 314°
2026-05-07 13:17 -27.32696 -64.62335 33822 ft 388 kts 314°
2026-05-07 13:18 -27.28682 -64.66401 33826 ft 388 kts 314°
2026-05-07 13:18 -27.24662 -64.70462 33827 ft 388 kts 314°
2026-05-07 13:19 -27.20648 -64.74518 33833 ft 388 kts 314°
2026-05-07 13:19 -27.16635 -64.78578 33835 ft 388 kts 314°
2026-05-07 13:20 -27.12612 -64.82641 33818 ft 391 kts 314°
2026-05-07 13:20 -27.08554 -64.86735 33840 ft 393 kts 314°
2026-05-07 13:21 -27.04491 -64.90826 33860 ft 392 kts 314°
2026-05-07 13:21 -27.00427 -64.94918 33869 ft 392 kts 314°
2026-05-07 13:22 -26.96367 -64.99006 33917 ft 392 kts 313°
2026-05-07 13:22 -26.92301 -65.03088 33906 ft 392 kts 313°
2026-05-07 13:23 -26.88241 -65.07162 33877 ft 396 kts 313°
2026-05-07 13:23 -26.84124 -65.11281 33882 ft 397 kts 314°
2026-05-07 13:24 -26.79883 -65.15251 33885 ft 398 kts 316°
2026-05-07 13:24 -26.75555 -65.19134 33884 ft 398 kts 316°
2026-05-07 13:25 -26.71240 -65.23026 33866 ft 398 kts 315°
2026-05-07 13:25 -26.66948 -65.26941 33840 ft 398 kts 316°
2026-05-07 13:26 -26.62649 -65.30872 33892 ft 400 kts 315°
2026-05-07 13:26 -26.58343 -65.34804 33884 ft 400 kts 315°
2026-05-07 13:27 -26.54002 -65.38755 33900 ft 400 kts 315°
2026-05-07 13:27 -26.49712 -65.42652 33889 ft 400 kts 315°
2026-05-07 13:28 -26.45391 -65.46570 33875 ft 400 kts 315°
2026-05-07 13:28 -26.41059 -65.50498 33856 ft 401 kts 315°
2026-05-07 13:29 -26.36729 -65.54429 33866 ft 401 kts 315°
2026-05-07 13:29 -26.32392 -65.58360 33877 ft 402 kts 315°
2026-05-07 13:30 -26.28051 -65.62282 33911 ft 402 kts 313°
2026-05-07 13:30 -26.23704 -65.66207 33887 ft 403 kts 313°
2026-05-07 13:31 -26.19348 -65.70136 33868 ft 403 kts 313°
2026-05-07 13:31 -26.14985 -65.74074 33841 ft 404 kts 314°
2026-05-07 13:32 -26.10617 -65.78011 33845 ft 404 kts 314°
2026-05-07 13:32 -26.06245 -65.81947 33847 ft 404 kts 314°
2026-05-07 13:33 -26.01869 -65.85886 33846 ft 404 kts 314°
2026-05-07 13:33 -25.97492 -65.89818 33840 ft 404 kts 314°
2026-05-07 13:34 -25.90882 -65.95745 33806 ft 413 kts 315°
2026-05-07 13:35 -25.86385 -65.99775 33805 ft 416 kts 315°
2026-05-07 13:35 -25.81869 -66.03815 33785 ft 418 kts 315°
2026-05-07 13:36 -25.77336 -66.07866 33788 ft 418 kts 315°
2026-05-07 13:36 -25.72798 -66.11913 33776 ft 419 kts 315°
2026-05-07 13:37 -25.68252 -66.15973 33783 ft 421 kts 315°
2026-05-07 13:37 -25.63685 -66.20052 33773 ft 421 kts 315°
2026-05-07 13:38 -25.59886 -66.23439 33784 ft 421 kts 315°
2026-05-07 13:38 -25.55308 -66.27516 33811 ft 427 kts 316°
2026-05-07 13:39 -25.50648 -66.31660 33808 ft 430 kts 316°
2026-05-07 13:39 -25.45969 -66.35802 33771 ft 431 kts 316°
2026-05-07 13:39 -25.43621 -66.37880 33892 ft 434 kts 315°
2026-05-07 13:40 -25.41266 -66.39966 33901 ft 434 kts 315°
2026-05-07 13:40 -25.36569 -66.44132 33933 ft 432 kts 315°
2026-05-07 13:41 -25.31883 -66.48287 33935 ft 430 kts 314°
2026-05-07 13:41 -25.27216 -66.52416 34008 ft 430 kts 315°
2026-05-07 13:42 -25.22540 -66.56552 34015 ft 431 kts 316°
2026-05-07 13:42 -25.17899 -66.60634 34017 ft 420 kts 313°
2026-05-07 13:43 -25.13355 -66.64627 34119 ft 417 kts 313°
2026-05-07 13:43 -25.08837 -66.68625 34114 ft 416 kts 313°
2026-05-07 13:44 -25.04315 -66.72607 34144 ft 416 kts 313°
2026-05-07 13:44 -24.99794 -66.76589 34163 ft 416 kts 313°
2026-05-07 13:45 -24.95274 -66.80570 34146 ft 415 kts 313°
2026-05-07 13:45 -24.90765 -66.84523 34171 ft 414 kts 313°
2026-05-07 13:46 -24.86264 -66.88463 34187 ft 413 kts 313°
2026-05-07 13:46 -24.81755 -66.92414 34162 ft 415 kts 313°
2026-05-07 13:47 -24.77223 -66.96383 34145 ft 417 kts 313°
2026-05-07 13:47 -24.72687 -67.00344 34140 ft 417 kts 313°
2026-05-07 13:48 -24.68139 -67.04299 34165 ft 415 kts 313°
2026-05-07 13:48 -24.63663 -67.08206 34191 ft 412 kts 313°
2026-05-07 13:49 -24.59185 -67.12125 34190 ft 411 kts 313°
2026-05-07 13:49 -24.54715 -67.16024 34178 ft 410 kts 313°
2026-05-07 13:50 -24.50246 -67.19908 34175 ft 410 kts 313°
2026-05-07 13:50 -24.45775 -67.23792 34152 ft 410 kts 313°
2026-05-07 13:51 -24.41302 -67.27676 34181 ft 409 kts 313°
2026-05-07 13:51 -24.36854 -67.31540 34183 ft 407 kts 313°
2026-05-07 13:52 -24.32414 -67.35392 34197 ft 407 kts 313°
2026-05-07 13:52 -24.27976 -67.39226 34195 ft 406 kts 313°
2026-05-07 13:53 -24.23551 -67.43061 34215 ft 405 kts 312°
2026-05-07 13:53 -24.19124 -67.46891 34173 ft 404 kts 312°
2026-05-07 13:54 -24.14723 -67.50680 34237 ft 401 kts 312°
2026-05-07 13:54 -24.10349 -67.54450 34288 ft 399 kts 312°
2026-05-07 13:55 -24.05954 -67.58173 34257 ft 399 kts 313°
2026-05-07 13:55 -24.01549 -67.61874 34259 ft 399 kts 313°
2026-05-07 13:56 -23.97145 -67.65581 34264 ft 400 kts 313°
2026-05-07 13:56 -23.92728 -67.69294 34250 ft 400 kts 313°
2026-05-07 13:57 -23.88335 -67.72991 34268 ft 398 kts 312°
2026-05-07 13:57 -23.83952 -67.76675 34285 ft 398 kts 313°
2026-05-07 13:58 -23.79564 -67.80351 34290 ft 397 kts 313°
2026-05-07 13:58 -23.75182 -67.84025 34262 ft 396 kts 313°
2026-05-07 13:59 -23.70808 -67.87685 34254 ft 395 kts 312°
2026-05-07 13:59 -23.66451 -67.91344 34251 ft 395 kts 312°
2026-05-07 14:00 -23.62092 -67.94998 34211 ft 396 kts 313°
2026-05-07 14:00 -23.57716 -67.98656 34214 ft 396 kts 313°
2026-05-07 14:01 -23.53343 -68.02307 34212 ft 396 kts 313°
2026-05-07 14:01 -23.48975 -68.05949 34210 ft 395 kts 313°
2026-05-07 14:02 -23.44630 -68.09566 34208 ft 395 kts 313°
2026-05-07 14:02 -23.40265 -68.13198 34170 ft 395 kts 313°
2026-05-07 14:03 -23.35901 -68.16830 34174 ft 395 kts 313°
2026-05-07 14:03 -23.31529 -68.20461 34156 ft 396 kts 313°
2026-05-07 14:04 -23.27149 -68.24101 34153 ft 396 kts 313°
2026-05-07 14:04 -23.22765 -68.27743 34157 ft 397 kts 313°
2026-05-07 14:05 -23.18380 -68.31387 34154 ft 397 kts 313°
2026-05-07 14:05 -23.13983 -68.35027 34110 ft 397 kts 313°
2026-05-07 14:06 -23.09590 -68.38664 34127 ft 397 kts 313°
2026-05-07 14:06 -23.05189 -68.42306 34139 ft 398 kts 313°
2026-05-07 14:07 -23.00783 -68.45948 34143 ft 397 kts 313°
2026-05-07 14:07 -22.96385 -68.49580 34145 ft 397 kts 313°
2026-05-07 14:08 -22.91986 -68.53210 34145 ft 397 kts 313°
2026-05-07 14:08 -22.87583 -68.56846 34100 ft 399 kts 313°
2026-05-07 14:09 -22.83163 -68.60488 34116 ft 399 kts 313°
2026-05-07 14:09 -22.78729 -68.64137 34124 ft 400 kts 313°
2026-05-07 14:10 -22.74293 -68.67781 34135 ft 400 kts 313°
2026-05-07 14:10 -22.69856 -68.71428 34138 ft 401 kts 313°
2026-05-07 14:11 -22.65407 -68.75077 34134 ft 401 kts 313°
2026-05-07 14:11 -22.60958 -68.78723 34138 ft 401 kts 313°
2026-05-07 14:12 -22.56514 -68.82373 34108 ft 402 kts 313°
2026-05-07 14:12 -22.52056 -68.86032 34090 ft 402 kts 313°
2026-05-07 14:13 -22.47634 -68.89734 34098 ft 401 kts 312°
2026-05-07 14:13 -22.43357 -68.93594 34104 ft 400 kts 311°
2026-05-07 14:14 -22.39109 -68.97486 34106 ft 401 kts 311°
2026-05-07 14:14 -22.34829 -69.01356 34097 ft 401 kts 311°
2026-05-07 14:15 -22.30528 -69.05206 34082 ft 402 kts 312°
2026-05-07 14:15 -22.26211 -69.09058 34088 ft 403 kts 312°
2026-05-07 14:16 -22.21894 -69.12919 34082 ft 403 kts 311°
2026-05-07 14:16 -22.17607 -69.16760 34087 ft 403 kts 311°
2026-05-07 14:17 -22.13282 -69.20622 34083 ft 404 kts 312°
2026-05-07 14:17 -22.08950 -69.24487 34089 ft 404 kts 312°
2026-05-07 14:18 -22.04613 -69.28348 34067 ft 406 kts 312°
2026-05-07 14:18 -22.00957 -69.31602 34073 ft 407 kts 312°
2026-05-07 14:19 -21.96587 -69.35492 34075 ft 407 kts 312°
2026-05-07 14:19 -21.92247 -69.39356 34077 ft 407 kts 312°
2026-05-07 14:20 -21.87881 -69.43238 34065 ft 407 kts 312°
2026-05-07 14:20 -21.83516 -69.47116 34063 ft 407 kts 312°
2026-05-07 14:21 -21.79141 -69.50995 34062 ft 407 kts 312°
2026-05-07 14:21 -21.74763 -69.54873 34037 ft 408 kts 313°
2026-05-07 14:22 -21.70378 -69.58757 34037 ft 409 kts 313°
2026-05-07 14:22 -21.65988 -69.62640 34048 ft 409 kts 313°
2026-05-07 14:23 -21.61593 -69.66530 34052 ft 409 kts 313°
2026-05-07 14:23 -21.57198 -69.70422 34052 ft 409 kts 313°
2026-05-07 14:24 -21.52793 -69.74304 34059 ft 410 kts 313°
2026-05-07 14:24 -21.48385 -69.78197 34044 ft 411 kts 313°
2026-05-07 14:25 -21.43958 -69.82097 34052 ft 412 kts 313°
2026-05-07 14:25 -21.39522 -69.85999 34056 ft 412 kts 313°
2026-05-07 14:26 -21.35087 -69.89904 34059 ft 413 kts 313°
2026-05-07 14:26 -21.30647 -69.93808 34059 ft 413 kts 313°
2026-05-07 14:27 -21.26200 -69.97714 34061 ft 413 kts 313°
2026-05-07 14:27 -21.21755 -70.01619 34037 ft 413 kts 314°
2026-05-07 14:28 -21.17297 -70.05530 34047 ft 415 kts 314°
2026-05-07 14:28 -21.12833 -70.09455 34054 ft 415 kts 314°
2026-05-07 14:29 -21.08359 -70.13378 34054 ft 416 kts 314°
2026-05-07 14:29 -21.03878 -70.17294 34058 ft 416 kts 314°
2026-05-07 14:30 -20.99392 -70.21212 34067 ft 416 kts 314°
2026-05-07 14:30 -20.94898 -70.25127 34066 ft 416 kts 314°
2026-05-07 14:31 -20.90412 -70.29045 34066 ft 417 kts 314°
2026-05-07 14:31 -20.85922 -70.32972 34066 ft 417 kts 314°
2026-05-07 14:32 -20.81426 -70.36893 34064 ft 417 kts 314°
2026-05-07 14:32 -20.76923 -70.40809 34066 ft 417 kts 314°
2026-05-07 14:33 -20.72419 -70.44724 34071 ft 417 kts 314°
2026-05-07 14:33 -20.67911 -70.48649 34071 ft 418 kts 314°
2026-05-07 14:34 -20.63403 -70.52563 34051 ft 418 kts 314°
2026-05-07 14:34 -20.58885 -70.56488 34055 ft 419 kts 314°
2026-05-07 14:35 -20.54357 -70.60421 34056 ft 420 kts 314°
2026-05-07 14:35 -20.49827 -70.64358 34060 ft 420 kts 314°
2026-05-07 14:36 -20.45284 -70.68289 34065 ft 421 kts 314°
2026-05-07 14:36 -20.40736 -70.72227 34064 ft 421 kts 314°
2026-05-07 14:37 -20.36187 -70.76162 34050 ft 421 kts 315°
2026-05-07 14:37 -20.29356 -70.82064 34062 ft 422 kts 315°
2026-05-07 14:38 -20.24796 -70.85999 34067 ft 422 kts 315°
2026-05-07 14:38 -20.20233 -70.89931 34075 ft 422 kts 315°
2026-05-07 14:39 -20.15670 -70.93868 34073 ft 423 kts 315°
2026-05-07 14:39 -20.11098 -70.97808 34073 ft 423 kts 315°
2026-05-07 14:40 -20.06521 -71.01741 34053 ft 423 kts 316°
2026-05-07 14:40 -20.01975 -71.05651 34060 ft 423 kts 316°
2026-05-07 14:41 -19.97397 -71.09582 34064 ft 423 kts 316°
2026-05-07 14:41 -19.92790 -71.13537 34065 ft 423 kts 316°
2026-05-07 14:42 -19.88241 -71.17441 34069 ft 423 kts 316°
2026-05-07 14:42 -19.83628 -71.21393 34071 ft 423 kts 316°
2026-05-07 14:43 -19.79040 -71.25324 34055 ft 424 kts 316°
2026-05-07 14:43 -19.74447 -71.29262 34063 ft 425 kts 316°
2026-05-07 14:44 -19.69873 -71.33180 34079 ft 425 kts 316°
2026-05-07 14:44 -19.65233 -71.37144 34069 ft 426 kts 316°
2026-05-07 14:45 -19.60646 -71.41059 34074 ft 426 kts 316°
2026-05-07 14:45 -19.56024 -71.44997 34078 ft 426 kts 316°
2026-05-07 14:46 -19.51368 -71.48963 34082 ft 426 kts 316°
2026-05-07 14:46 -19.46777 -71.52876 34060 ft 426 kts 316°
2026-05-07 14:47 -19.42165 -71.56795 34073 ft 425 kts 316°
2026-05-07 14:47 -19.37548 -71.60727 34073 ft 426 kts 316°
2026-05-07 14:48 -19.32932 -71.64657 34080 ft 426 kts 316°
2026-05-07 14:48 -19.28306 -71.68589 34082 ft 426 kts 316°
2026-05-07 14:49 -19.23682 -71.72520 34084 ft 426 kts 316°
2026-05-07 14:49 -19.19054 -71.76444 34069 ft 426 kts 317°
2026-05-07 14:50 -19.14413 -71.80367 34074 ft 427 kts 317°
2026-05-07 14:50 -19.09777 -71.84297 34076 ft 427 kts 317°
2026-05-07 14:51 -19.05141 -71.88220 34077 ft 427 kts 317°
2026-05-07 14:51 -19.00493 -71.92142 34086 ft 427 kts 317°
2026-05-07 14:52 -18.95855 -71.96061 34087 ft 427 kts 317°
2026-05-07 14:52 -18.91213 -71.99975 34090 ft 427 kts 316°
2026-05-07 14:53 -18.86572 -72.03898 34068 ft 428 kts 317°
2026-05-07 14:53 -18.81923 -72.07823 34069 ft 428 kts 317°
2026-05-07 14:54 -18.77264 -72.11746 34074 ft 428 kts 317°
2026-05-07 14:54 -18.72602 -72.15669 34075 ft 428 kts 317°
2026-05-07 14:55 -18.67940 -72.19591 34073 ft 428 kts 317°
2026-05-07 14:55 -18.63277 -72.23505 34072 ft 429 kts 317°
2026-05-07 14:56 -18.58613 -72.27424 34060 ft 429 kts 317°
2026-05-07 14:56 -18.53940 -72.31353 34061 ft 430 kts 317°
2026-05-07 14:57 -18.49251 -72.35284 34067 ft 431 kts 317°
2026-05-07 14:57 -18.45346 -72.38554 34073 ft 431 kts 317°
2026-05-07 14:58 -18.40646 -72.42491 34074 ft 432 kts 317°
2026-05-07 14:58 -18.35946 -72.46430 34078 ft 432 kts 317°
2026-05-07 14:59 -18.31247 -72.50368 34081 ft 431 kts 317°
2026-05-07 14:59 -18.26550 -72.54299 34063 ft 432 kts 317°
2026-05-07 15:00 -18.21847 -72.58236 34063 ft 432 kts 317°
2026-05-07 15:00 -18.17131 -72.62170 34065 ft 433 kts 317°
2026-05-07 15:01 -18.12414 -72.66102 34072 ft 433 kts 317°
2026-05-07 15:01 -18.07702 -72.70035 34067 ft 432 kts 317°
2026-05-07 15:02 -18.02986 -72.73964 34068 ft 433 kts 317°
2026-05-07 15:02 -17.98270 -72.77900 34070 ft 433 kts 317°
2026-05-07 15:03 -17.93552 -72.81821 34069 ft 433 kts 317°
2026-05-07 15:03 -17.88834 -72.85742 34072 ft 433 kts 317°
2026-05-07 15:04 -17.84115 -72.89666 34065 ft 432 kts 317°
2026-05-07 15:04 -17.79400 -72.93591 34064 ft 432 kts 317°
2026-05-07 15:05 -17.74688 -72.97506 34069 ft 432 kts 317°
2026-05-07 15:05 -17.69967 -73.01417 34068 ft 432 kts 317°
2026-05-07 15:06 -17.65254 -73.05332 34054 ft 432 kts 317°
2026-05-07 15:06 -17.60535 -73.09243 34058 ft 432 kts 317°
2026-05-07 15:07 -17.55809 -73.13152 34055 ft 433 kts 317°
2026-05-07 15:07 -17.51084 -73.17062 34054 ft 433 kts 317°
2026-05-07 15:08 -17.46359 -73.20970 34055 ft 433 kts 317°
2026-05-07 15:08 -17.41629 -73.24875 34053 ft 433 kts 317°
2026-05-07 15:09 -17.36898 -73.28786 34047 ft 433 kts 317°
2026-05-07 15:09 -17.32167 -73.32696 34046 ft 434 kts 317°
2026-05-07 15:10 -17.27419 -73.36604 34049 ft 434 kts 317°
2026-05-07 15:10 -17.22668 -73.40511 34056 ft 434 kts 317°
2026-05-07 15:11 -17.17944 -73.44394 34067 ft 435 kts 317°
2026-05-07 15:11 -17.13158 -73.48330 34065 ft 435 kts 317°
2026-05-07 15:12 -17.08404 -73.52246 34063 ft 435 kts 317°
2026-05-07 15:12 -17.03640 -73.56161 34048 ft 436 kts 317°
2026-05-07 15:13 -16.98879 -73.60079 34058 ft 436 kts 317°
2026-05-07 15:13 -16.94112 -73.63993 34061 ft 436 kts 317°
2026-05-07 15:14 -16.89342 -73.67903 34063 ft 436 kts 317°
2026-05-07 15:14 -16.84599 -73.71786 34067 ft 436 kts 317°
2026-05-07 15:15 -16.79826 -73.75695 34062 ft 436 kts 317°
2026-05-07 15:15 -16.75056 -73.79602 34070 ft 436 kts 317°
2026-05-07 15:16 -16.70289 -73.83507 34061 ft 436 kts 317°
2026-05-07 15:16 -16.65510 -73.87414 34057 ft 437 kts 317°
2026-05-07 15:17 -16.60729 -73.91325 34065 ft 437 kts 317°
2026-05-07 15:17 -16.55950 -73.95226 34061 ft 437 kts 318°
2026-05-07 15:18 -16.51158 -73.99125 34059 ft 437 kts 318°
2026-05-07 15:18 -16.46370 -74.03035 34066 ft 437 kts 318°
2026-05-07 15:19 -16.41582 -74.06935 34062 ft 437 kts 318°
2026-05-07 15:19 -16.36782 -74.10835 34066 ft 438 kts 318°
2026-05-07 15:20 -16.31981 -74.14731 34064 ft 437 kts 318°
2026-05-07 15:20 -16.27189 -74.18634 34066 ft 437 kts 318°
2026-05-07 15:21 -16.22402 -74.22536 34062 ft 437 kts 318°
2026-05-07 15:21 -16.17598 -74.26428 34064 ft 438 kts 318°
2026-05-07 15:22 -16.12790 -74.30320 34070 ft 437 kts 318°
2026-05-07 15:22 -16.07992 -74.34210 34051 ft 437 kts 319°
2026-05-07 15:23 -16.03192 -74.38098 34059 ft 438 kts 319°
2026-05-07 15:23 -15.98385 -74.41989 34062 ft 438 kts 319°
2026-05-07 15:24 -15.93578 -74.45891 34066 ft 438 kts 319°
2026-05-07 15:24 -15.88773 -74.49779 34080 ft 438 kts 319°
2026-05-07 15:25 -15.83963 -74.53666 34075 ft 438 kts 319°
2026-05-07 15:25 -15.79150 -74.57554 34077 ft 438 kts 319°
2026-05-07 15:26 -15.74337 -74.61435 34080 ft 438 kts 319°
2026-05-07 15:26 -15.69517 -74.65322 34079 ft 439 kts 319°
2026-05-07 15:27 -15.64729 -74.69180 34094 ft 439 kts 319°
2026-05-07 15:27 -15.59904 -74.73069 34096 ft 439 kts 319°
2026-05-07 15:28 -15.55081 -74.76957 34101 ft 439 kts 319°
2026-05-07 15:28 -15.50262 -74.80835 34108 ft 439 kts 319°
2026-05-07 15:29 -15.45441 -74.84716 34098 ft 439 kts 319°
2026-05-07 15:29 -15.40613 -74.88596 34100 ft 439 kts 319°
2026-05-07 15:30 -15.35778 -74.92482 34117 ft 439 kts 319°
2026-05-07 15:30 -15.30945 -74.96366 34120 ft 440 kts 319°
2026-05-07 15:31 -15.26106 -75.00245 34132 ft 440 kts 319°
2026-05-07 15:31 -15.21272 -75.04123 34132 ft 440 kts 319°
2026-05-07 15:32 -15.16428 -75.07996 34125 ft 440 kts 319°
2026-05-07 15:32 -15.11582 -75.11874 34126 ft 440 kts 319°
2026-05-07 15:33 -15.06737 -75.15750 34123 ft 440 kts 319°
2026-05-07 15:33 -15.01901 -75.19621 34116 ft 440 kts 319°
2026-05-07 15:34 -14.97062 -75.23498 34114 ft 440 kts 319°
2026-05-07 15:34 -14.92213 -75.27377 34115 ft 440 kts 319°
2026-05-07 15:35 -14.87365 -75.31245 34125 ft 440 kts 319°
2026-05-07 15:35 -14.82520 -75.35110 34127 ft 440 kts 319°
2026-05-07 15:36 -14.77674 -75.38980 34122 ft 440 kts 319°
2026-05-07 15:36 -14.72827 -75.42848 34134 ft 440 kts 319°
2026-05-07 15:37 -14.67970 -75.46706 34130 ft 441 kts 319°
2026-05-07 15:37 -14.63930 -75.49920 34118 ft 441 kts 319°
2026-05-07 15:38 -14.59068 -75.53787 34117 ft 441 kts 319°
2026-05-07 15:38 -14.54207 -75.57655 34116 ft 441 kts 319°
2026-05-07 15:39 -14.49339 -75.61522 34121 ft 442 kts 319°
2026-05-07 15:39 -14.44473 -75.65390 34105 ft 442 kts 319°
2026-05-07 15:40 -14.39606 -75.69259 34105 ft 442 kts 319°
2026-05-07 15:40 -14.34740 -75.73125 34107 ft 442 kts 319°
2026-05-07 15:41 -14.29872 -75.76990 34111 ft 442 kts 319°
2026-05-07 15:41 -14.24997 -75.80853 34086 ft 442 kts 319°
2026-05-07 15:42 -14.20117 -75.84716 34083 ft 442 kts 319°
2026-05-07 15:42 -14.15240 -75.88584 34084 ft 442 kts 319°
2026-05-07 15:43 -14.10366 -75.92437 34080 ft 443 kts 320°
2026-05-07 15:43 -14.05483 -75.96298 34055 ft 443 kts 320°
2026-05-07 15:44 -14.00599 -76.00161 34055 ft 443 kts 320°
2026-05-07 15:44 -13.95704 -76.04022 34050 ft 443 kts 320°
2026-05-07 15:45 -13.90809 -76.07887 34034 ft 443 kts 320°
2026-05-07 15:45 -13.85919 -76.11752 34033 ft 443 kts 320°
2026-05-07 15:46 -13.78579 -76.17537 34030 ft 443 kts 320°
2026-05-07 15:47 -13.73663 -76.21377 34027 ft 445 kts 323°
2026-05-07 15:47 -13.68412 -76.24754 34017 ft 444 kts 325°
2026-05-07 15:48 -13.63155 -76.28109 34022 ft 445 kts 325°
2026-05-07 15:48 -13.57885 -76.31475 34022 ft 445 kts 325°
2026-05-07 15:49 -13.52622 -76.34844 34031 ft 446 kts 325°
2026-05-07 15:49 -13.47352 -76.38206 34021 ft 446 kts 325°
2026-05-07 15:50 -13.42079 -76.41565 34023 ft 446 kts 325°
2026-05-07 15:50 -13.36806 -76.44931 34019 ft 446 kts 325°
2026-05-07 15:51 -13.31527 -76.48299 34021 ft 446 kts 325°
2026-05-07 15:51 -13.26286 -76.51642 34036 ft 446 kts 326°
2026-05-07 15:52 -13.21010 -76.55007 34037 ft 446 kts 326°
2026-05-07 15:52 -13.15727 -76.58358 33976 ft 447 kts 326°
2026-05-07 15:52 -13.13046 -76.60059 33695 ft 447 kts 326°
2026-05-07 15:53 -13.10407 -76.61738 33196 ft 447 kts 326°
2026-05-07 15:53 -13.07765 -76.63421 32065 ft 444 kts 326°
2026-05-07 15:53 -13.05169 -76.65074 31126 ft 435 kts 326°
2026-05-07 15:53 -13.02615 -76.66697 30120 ft 429 kts 327°
2026-05-07 15:54 -13.00077 -76.68309 28922 ft 431 kts 327°
2026-05-07 15:54 -12.97512 -76.69940 28063 ft 434 kts 327°
2026-05-07 15:54 -12.94960 -76.71561 27448 ft 431 kts 327°
2026-05-07 15:54 -12.92414 -76.73175 26747 ft 430 kts 327°
2026-05-07 15:55 -12.89867 -76.74789 26045 ft 430 kts 327°
2026-05-07 15:55 -12.87327 -76.76399 25355 ft 429 kts 327°
2026-05-07 15:55 -12.84788 -76.78012 24673 ft 430 kts 327°
2026-05-07 15:55 -12.82246 -76.79628 23997 ft 430 kts 328°
2026-05-07 15:56 -12.79703 -76.81244 23269 ft 431 kts 328°
2026-05-07 15:56 -12.77152 -76.82863 22581 ft 430 kts 328°
2026-05-07 15:56 -12.74613 -76.84473 21950 ft 428 kts 328°
2026-05-07 15:56 -12.72089 -76.86074 21332 ft 427 kts 328°
2026-05-07 15:57 -12.69564 -76.87675 20786 ft 424 kts 328°
2026-05-07 15:57 -12.67113 -76.89226 20647 ft 406 kts 328°
2026-05-07 15:57 -12.64749 -76.90723 20524 ft 393 kts 328°
2026-05-07 15:57 -12.62464 -76.92169 20403 ft 380 kts 328°
2026-05-07 15:58 -12.60249 -76.93570 20275 ft 368 kts 328°
2026-05-07 15:58 -12.58091 -76.94933 20015 ft 362 kts 330°
2026-05-07 15:58 -12.55865 -76.96100 19693 ft 362 kts 335°
2026-05-07 15:58 -12.53598 -76.97227 19308 ft 359 kts 335°
2026-05-07 15:59 -12.51364 -76.98336 18738 ft 354 kts 335°
2026-05-07 15:59 -12.49161 -76.99430 18256 ft 351 kts 335°
2026-05-07 15:59 -12.46974 -77.00517 17768 ft 348 kts 335°
2026-05-07 15:59 -12.44802 -77.01599 17307 ft 346 kts 335°
2026-05-07 16:00 -12.42648 -77.02672 16863 ft 343 kts 335°
2026-05-07 16:00 -12.40503 -77.03740 16424 ft 342 kts 335°
2026-05-07 16:00 -12.38380 -77.04796 15976 ft 338 kts 335°
2026-05-07 16:00 -12.36275 -77.05843 15532 ft 335 kts 335°
2026-05-07 16:01 -12.34189 -77.06878 15110 ft 332 kts 335°
2026-05-07 16:01 -12.32118 -77.07904 14683 ft 329 kts 335°
2026-05-07 16:01 -12.30067 -77.08920 14249 ft 326 kts 335°
2026-05-07 16:01 -12.28032 -77.09930 13834 ft 324 kts 335°
2026-05-07 16:02 -12.26012 -77.10933 13366 ft 321 kts 335°
2026-05-07 16:02 -12.24007 -77.11928 12947 ft 319 kts 335°
2026-05-07 16:02 -12.22019 -77.12914 12532 ft 317 kts 335°
2026-05-07 16:02 -12.20042 -77.13898 12123 ft 315 kts 335°
2026-05-07 16:03 -12.18077 -77.14876 11716 ft 313 kts 335°
2026-05-07 16:03 -12.16131 -77.15843 11311 ft 310 kts 335°
2026-05-07 16:03 -12.14197 -77.16802 10909 ft 307 kts 334°
2026-05-07 16:03 -12.12327 -77.17727 10650 ft 290 kts 334°
2026-05-07 16:04 -12.10543 -77.18610 10313 ft 280 kts 334°
2026-05-07 16:04 -12.08804 -77.19471 10112 ft 276 kts 334°
2026-05-07 16:04 -12.07076 -77.20325 9923 ft 275 kts 334°
2026-05-07 16:04 -12.05352 -77.21179 9645 ft 274 kts 334°
2026-05-07 16:05 -12.03639 -77.22028 9291 ft 273 kts 334°
2026-05-07 16:05 -12.01933 -77.22872 8925 ft 272 kts 334°
2026-05-07 16:05 -12.00234 -77.23725 8548 ft 273 kts 333°
2026-05-07 16:05 -11.98563 -77.24591 8186 ft 272 kts 333°
2026-05-07 16:06 -11.96881 -77.25474 7822 ft 271 kts 333°
2026-05-07 16:06 -11.95207 -77.26354 7449 ft 270 kts 333°
2026-05-07 16:06 -11.93538 -77.27230 7085 ft 269 kts 332°
2026-05-07 16:06 -11.91876 -77.28099 6712 ft 269 kts 333°
2026-05-07 16:07 -11.90194 -77.28945 6297 ft 269 kts 333°
2026-05-07 16:07 -11.88512 -77.29772 5945 ft 267 kts 334°
2026-05-07 16:07 -11.86833 -77.30556 5523 ft 263 kts 342°
2026-05-07 16:07 -11.85051 -77.30682 5126 ft 257 kts 14°
2026-05-07 16:08 -11.83483 -77.29881 4738 ft 253 kts 46°
2026-05-07 16:08 -11.82500 -77.28418 4332 ft 247 kts 68°
2026-05-07 16:08 -11.81777 -77.26901 4213 ft 230 kts 67°
2026-05-07 16:08 -11.81303 -77.25378 4122 ft 221 kts 85°
2026-05-07 16:09 -11.81330 -77.23863 4016 ft 208 kts 104°
2026-05-07 16:09 -11.81783 -77.22502 3797 ft 201 kts 119°
2026-05-07 16:09 -11.82597 -77.21373 3598 ft 195 kts 135°
2026-05-07 16:09 -11.83664 -77.20563 3353 ft 189 kts 152°
2026-05-07 16:10 -11.84831 -77.19986 3137 ft 186 kts 154°
2026-05-07 16:10 -11.86009 -77.19405 2927 ft 188 kts 154°
2026-05-07 16:10 -11.87203 -77.18817 2797 ft 195 kts 154°
2026-05-07 16:10 -11.88438 -77.18208 2640 ft 198 kts 154°
2026-05-07 16:11 -11.89675 -77.17599 2405 ft 195 kts 154°
2026-05-07 16:11 -11.90877 -77.17007 2172 ft 188 kts 155°
2026-05-07 16:11 -11.92031 -77.16438 1944 ft 182 kts 156°
2026-05-07 16:11 -11.93159 -77.15883 1714 ft 176 kts 155°
2026-05-07 16:12 -11.94216 -77.15362 1483 ft 161 kts 155°
2026-05-07 16:12 -11.95173 -77.14890 1300 ft 145 kts 155°
2026-05-07 16:12 -11.96056 -77.14455 1093 ft 137 kts 155°
2026-05-07 16:12 -11.96908 -77.14036 910 ft 135 kts 156°
2026-05-07 16:13 -11.97753 -77.13620 720 ft 135 kts 157°
2026-05-07 16:13 -11.98602 -77.13200 536 ft 136 kts 156°
2026-05-07 16:13 -11.99453 -77.12782 363 ft 136 kts 156°
2026-05-07 16:13 -12.00299 -77.12362 189 ft 135 kts 156°
2026-05-07 16:14 -12.01139 -77.11948 67 ft 131 kts 157°
2026-05-07 16:14 -12.01851 -77.11600 62 ft 91 kts 153°
2026-05-07 16:14 -12.02267 -77.11394 79 ft 42 kts 154°
2026-05-07 16:14 -12.02439 -77.11310 88 ft 21 kts 155°
2026-05-07 16:15 -12.02524 -77.11301 91 ft 10 kts 225°
2026-05-07 16:15 -12.02559 -77.11367 85 ft 12 kts 244°
2026-05-07 16:15 -12.02624 -77.11402 83 ft 8 kts 176°
2026-05-07 16:15 -12.02658 -77.11428 86 ft 6 kts 237°
2026-05-07 16:16 -12.02697 -77.11434 82 ft 6 kts 167°
2026-05-07 16:16 -12.02721 -77.11458 85 ft 5 kts 252°
2026-05-07 16:16 -12.02731 -77.11481 84 ft 2 kts 244°
2026-05-07 16:16 -12.02732 -77.11484 85 ft 0 kts 244°